Time,TemperatureF,DewpointF,PressureIn,WindDirection,WindDirectionDegrees,WindSpeedMPH,WindSpeedGustMPH,Humidity,HourlyPrecipIn,Conditions,Clouds,dailyrainin,SoftwareType,DateUTC
2013-02-17 00:00:00,9.4,-0.3,30.22,WNW,292,5.0,6.0,64,0.00,,FEW250,0.00,VWS V14.01,2013-02-17 06:00:00,
2013-02-17 00:05:00,9.4,-0.3,30.22,WNW,292,5.0,8.0,64,0.00,,FEW250,0.00,VWS V14.01,2013-02-17 06:05:00,
2013-02-17 00:10:00,9.4,-0.3,30.22,WNW,292,4.0,7.0,64,0.00,,FEW250,0.00,VWS V14.01,2013-02-17 06:10:00,
2013-02-17 00:15:00,9.4,-0.3,30.22,NW,315,3.0,5.0,64,0.00,,FEW250,0.00,VWS V14.01,2013-02-17 06:15:00,
2013-02-17 00:20:00,9.3,-0.4,30.22,NW,315,3.0,5.0,64,0.00,,FEW250,0.00,VWS V14.01,2013-02-17 06:20:00,
2013-02-17 00:25:00,9.1,-0.3,30.22,NW,315,3.0,4.0,65,0.00,,FEW250,0.00,VWS V14.01,2013-02-17 06:25:00,
2013-02-17 00:30:00,8.9,-0.4,30.22,NW,315,4.0,5.0,65,0.00,,FEW250,0.00,VWS V14.01,2013-02-17 06:30:00,
2013-02-17 00:35:00,8.7,-0.3,30.22,NW,315,4.0,5.0,66,0.00,,FEW250,0.00,VWS V14.01,2013-02-17 06:35:00,
2013-02-17 00:40:00,8.6,-0.4,30.22,NW,315,2.0,4.0,66,0.00,,FEW250,0.00,VWS V14.01,2013-02-17 06:40:00,
2013-02-17 00:45:00,8.5,-0.2,30.22,NW,315,2.0,3.0,67,0.00,,FEW250,0.00,VWS V14.01,2013-02-17 06:45:00,
2013-02-17 00:50:00,8.4,-0.3,30.22,NW,315,2.0,3.0,67,0.00,,FEW250,0.00,VWS V14.01,2013-02-17 06:50:00,
2013-02-17 00:55:00,8.3,-0.4,30.22,NW,315,2.0,3.0,67,0.00,,FEW250,0.00,VWS V14.01,2013-02-17 06:55:00,
2013-02-17 01:00:00,8.3,-0.1,30.22,NW,315,3.0,4.0,68,0.00,,FEW250,0.00,VWS V14.01,2013-02-17 07:00:00,
2013-02-17 01:05:00,8.3,-0.4,30.22,NW,315,2.0,4.0,67,0.00,,FEW250,0.00,VWS V14.01,2013-02-17 07:05:00,
2013-02-17 01:10:00,8.2,-0.5,30.22,NW,315,2.0,3.0,67,0.00,,FEW250,0.00,VWS V14.01,2013-02-17 07:10:00,
2013-02-17 01:15:00,8.2,-0.5,30.22,NW,315,2.0,3.0,67,0.00,,FEW250,0.00,VWS V14.01,2013-02-17 07:15:00,
2013-02-17 01:20:00,8.2,-0.5,30.22,NW,315,2.0,4.0,67,0.00,,FEW250,0.00,VWS V14.01,2013-02-17 07:20:00,
2013-02-17 01:25:00,8.2,-0.5,30.22,NW,315,2.0,4.0,67,0.00,,FEW250,0.00,VWS V14.01,2013-02-17 07:25:00,
2013-02-17 01:30:00,8.3,-0.1,30.22,NW,315,2.0,4.0,68,0.00,,FEW250,0.00,VWS V14.01,2013-02-17 07:30:00,
2013-02-17 01:35:00,8.3,-0.1,30.22,WNW,292,3.0,5.0,68,0.00,,FEW250,0.00,VWS V14.01,2013-02-17 07:35:00,
2013-02-17 01:40:00,8.3,-0.1,30.22,WNW,292,2.0,4.0,68,0.00,,FEW250,0.00,VWS V14.01,2013-02-17 07:40:00,
2013-02-17 01:45:00,8.3,-0.1,30.22,WNW,292,3.0,5.0,68,0.00,,FEW250,0.00,VWS V14.01,2013-02-17 07:45:00,
2013-02-17 01:50:00,8.3,-0.1,30.22,WNW,292,3.0,5.0,68,0.00,,FEW250,0.00,VWS V14.01,2013-02-17 07:50:00,
2013-02-17 01:55:00,8.2,-0.5,30.22,WNW,292,3.0,4.0,67,0.00,,FEW250,0.00,VWS V14.01,2013-02-17 07:55:00,
2013-02-17 02:00:00,8.2,-0.5,30.22,WNW,292,3.0,5.0,67,0.00,,FEW250,0.00,VWS V14.01,2013-02-17 08:00:00,
2013-02-17 02:05:00,8.1,-0.6,30.23,WNW,292,3.0,4.0,67,0.00,,FEW250,0.00,VWS V14.01,2013-02-17 08:05:00,
2013-02-17 02:10:00,8.0,-0.4,30.23,WNW,292,3.0,5.0,68,0.00,,FEW250,0.00,VWS V14.01,2013-02-17 08:10:00,
2013-02-17 02:15:00,8.0,-0.4,30.23,WNW,292,3.0,4.0,68,0.00,,FEW250,0.00,VWS V14.01,2013-02-17 08:15:00,
2013-02-17 02:20:00,8.0,-0.4,30.23,WNW,292,3.0,4.0,68,0.00,,FEW250,0.00,VWS V14.01,2013-02-17 08:20:00,
2013-02-17 02:25:00,7.9,-0.4,30.23,WNW,292,2.0,5.0,68,0.00,,FEW250,0.00,VWS V14.01,2013-02-17 08:25:00,
2013-02-17 02:30:00,7.9,-0.4,30.22,WNW,292,3.0,5.0,68,0.00,,FEW250,0.00,VWS V14.01,2013-02-17 08:30:00,
2013-02-17 02:35:00,7.9,-0.4,30.22,WNW,292,3.0,5.0,68,0.00,,FEW250,0.00,VWS V14.01,2013-02-17 08:35:00,
2013-02-17 02:40:00,7.8,-0.6,30.22,WNW,292,3.0,4.0,68,0.00,,FEW250,0.00,VWS V14.01,2013-02-17 08:40:00,
2013-02-17 02:45:00,7.7,-0.6,30.22,WNW,292,3.0,4.0,68,0.00,,FEW250,0.00,VWS V14.01,2013-02-17 08:45:00,
2013-02-17 02:50:00,7.6,-0.7,30.22,WNW,292,3.0,4.0,68,0.00,,FEW250,0.00,VWS V14.01,2013-02-17 08:50:00,
2013-02-17 02:55:00,7.5,-0.5,30.22,WNW,292,3.0,4.0,69,0.00,,FEW250,0.00,VWS V14.01,2013-02-17 08:55:00,
2013-02-17 03:00:00,7.4,-0.6,30.22,WNW,292,4.0,5.0,69,0.00,,FEW250,0.00,VWS V14.01,2013-02-17 09:00:00,
2013-02-17 03:05:00,7.4,-0.6,30.22,WNW,292,3.0,5.0,69,0.00,,FEW250,0.00,VWS V14.01,2013-02-17 09:05:00,
2013-02-17 03:10:00,7.3,-0.7,30.22,WNW,292,3.0,4.0,69,0.00,,FEW250,0.00,VWS V14.01,2013-02-17 09:10:00,
2013-02-17 03:15:00,7.2,-0.5,30.22,WNW,292,3.0,4.0,70,0.00,,FEW250,0.00,VWS V14.01,2013-02-17 09:15:00,
2013-02-17 03:20:00,7.2,-0.5,30.22,WNW,292,3.0,4.0,70,0.00,,FEW250,0.00,VWS V14.01,2013-02-17 09:20:00,
2013-02-17 03:25:00,7.1,-0.6,30.22,WNW,292,2.0,4.0,70,0.00,,FEW250,0.00,VWS V14.01,2013-02-17 09:25:00,
2013-02-17 03:30:00,7.1,-0.6,30.22,WNW,292,2.0,4.0,70,0.00,,FEW250,0.00,VWS V14.01,2013-02-17 09:30:00,
2013-02-17 03:35:00,7.1,-0.6,30.22,WNW,292,2.0,3.0,70,0.00,,FEW250,0.00,VWS V14.01,2013-02-17 09:35:00,
2013-02-17 03:40:00,7.1,-0.6,30.22,WNW,292,2.0,3.0,70,0.00,,FEW250,0.00,VWS V14.01,2013-02-17 09:40:00,
2013-02-17 03:45:00,7.1,-0.6,30.22,WNW,292,3.0,4.0,70,0.00,,FEW250,0.00,VWS V14.01,2013-02-17 09:45:00,
2013-02-17 03:50:00,7.1,-0.6,30.22,WNW,292,3.0,4.0,70,0.00,,FEW250,0.00,VWS V14.01,2013-02-17 09:50:00,
2013-02-17 03:55:00,7.2,-0.5,30.22,WNW,292,3.0,4.0,70,0.00,,FEW250,0.00,VWS V14.01,2013-02-17 09:55:00,
2013-02-17 04:00:00,7.2,-0.5,30.22,WNW,292,3.0,4.0,70,0.00,,FEW250,0.00,VWS V14.01,2013-02-17 10:00:00,
2013-02-17 04:05:00,7.2,-0.5,30.22,WNW,292,3.0,4.0,70,0.00,,FEW250,0.00,VWS V14.01,2013-02-17 10:05:00,
2013-02-17 04:10:00,7.2,-0.5,30.22,WNW,292,3.0,4.0,70,0.00,,FEW250,0.00,VWS V14.01,2013-02-17 10:10:00,
2013-02-17 04:15:00,7.2,-0.5,30.22,WNW,292,3.0,4.0,70,0.00,,FEW250,0.00,VWS V14.01,2013-02-17 10:15:00,
2013-02-17 04:20:00,7.1,-0.6,30.22,NW,315,3.0,4.0,70,0.00,,FEW250,0.00,VWS V14.01,2013-02-17 10:20:00,
2013-02-17 04:25:00,7.1,-0.6,30.22,NW,315,2.0,4.0,70,0.00,,FEW250,0.00,VWS V14.01,2013-02-17 10:25:00,
2013-02-17 04:30:00,7.1,-0.6,30.22,WNW,292,3.0,4.0,70,0.00,,FEW250,0.00,VWS V14.01,2013-02-17 10:30:00,
2013-02-17 04:35:00,7.1,-0.6,30.22,WNW,292,3.0,4.0,70,0.00,,FEW250,0.00,VWS V14.01,2013-02-17 10:35:00,
2013-02-17 04:40:00,7.2,-0.5,30.22,WNW,292,3.0,4.0,70,0.00,,FEW250,0.00,VWS V14.01,2013-02-17 10:40:00,
2013-02-17 04:45:00,7.1,-0.6,30.22,WNW,292,3.0,4.0,70,0.00,,FEW250,0.00,VWS V14.01,2013-02-17 10:45:00,
2013-02-17 04:50:00,7.1,-0.6,30.22,WNW,292,2.0,3.0,70,0.00,,FEW250,0.00,VWS V14.01,2013-02-17 10:50:00,
2013-02-17 04:55:00,7.1,-0.6,30.22,WNW,292,2.0,3.0,70,0.00,,FEW250,0.00,VWS V14.01,2013-02-17 10:55:00,
2013-02-17 05:00:00,7.0,-0.7,30.22,WNW,292,2.0,3.0,70,0.00,,FEW250,0.00,VWS V14.01,2013-02-17 11:00:00,
2013-02-17 05:05:00,6.9,-0.8,30.22,WNW,292,3.0,4.0,70,0.00,,FEW250,0.00,VWS V14.01,2013-02-17 11:05:00,
2013-02-17 05:10:00,6.9,-0.8,30.22,WNW,292,3.0,4.0,70,0.00,,FEW250,0.00,VWS V14.01,2013-02-17 11:10:00,
2013-02-17 05:15:00,6.8,-0.9,30.23,WNW,292,2.0,3.0,70,0.00,,FEW250,0.00,VWS V14.01,2013-02-17 11:15:00,
2013-02-17 05:20:00,6.7,-0.7,30.23,WNW,292,2.0,3.0,71,0.00,,FEW250,0.00,VWS V14.01,2013-02-17 11:20:00,
2013-02-17 05:25:00,6.7,-0.7,30.23,WNW,292,2.0,3.0,71,0.00,,FEW250,0.00,VWS V14.01,2013-02-17 11:25:00,
2013-02-17 05:30:00,6.7,-0.7,30.24,WNW,292,2.0,3.0,71,0.00,,FEW250,0.00,VWS V14.01,2013-02-17 11:30:00,
2013-02-17 05:35:00,6.7,-0.7,30.23,WNW,292,2.0,4.0,71,0.00,,FEW250,0.00,VWS V14.01,2013-02-17 11:35:00,
2013-02-17 05:40:00,6.7,-0.7,30.23,WNW,292,2.0,4.0,71,0.00,,FEW250,0.00,VWS V14.01,2013-02-17 11:40:00,
2013-02-17 05:45:00,6.7,-0.7,30.23,WNW,292,2.0,3.0,71,0.00,,FEW250,0.00,VWS V14.01,2013-02-17 11:45:00,
2013-02-17 05:50:00,6.6,-0.8,30.23,WNW,292,1.0,3.0,71,0.00,,FEW250,0.00,VWS V14.01,2013-02-17 11:50:00,
2013-02-17 05:55:00,6.6,-0.5,30.24,WNW,292,2.0,3.0,72,0.00,,FEW250,0.00,VWS V14.01,2013-02-17 11:55:00,
2013-02-17 06:00:00,6.7,-0.4,30.24,WNW,292,2.0,4.0,72,0.00,,FEW250,0.00,VWS V14.01,2013-02-17 12:00:00,
2013-02-17 06:05:00,6.8,-0.3,30.24,WNW,292,2.0,3.0,72,0.00,,FEW250,0.00,VWS V14.01,2013-02-17 12:05:00,
2013-02-17 06:10:00,6.8,-0.3,30.24,WNW,292,2.0,3.0,72,0.00,,FEW250,0.00,VWS V14.01,2013-02-17 12:10:00,
2013-02-17 06:15:00,6.9,-0.5,30.24,WNW,292,2.0,3.0,71,0.00,,FEW250,0.00,VWS V14.01,2013-02-17 12:15:00,
2013-02-17 06:20:00,6.8,-0.6,30.24,WNW,292,2.0,3.0,71,0.00,,FEW250,0.00,VWS V14.01,2013-02-17 12:20:00,
2013-02-17 06:25:00,6.7,-0.7,30.24,WNW,292,2.0,3.0,71,0.00,,FEW250,0.00,VWS V14.01,2013-02-17 12:25:00,
2013-02-17 06:30:00,6.7,-0.7,30.24,WNW,292,2.0,3.0,71,0.00,,FEW250,0.00,VWS V14.01,2013-02-17 12:30:00,
2013-02-17 06:35:00,6.7,-0.7,30.24,West,270,2.0,3.0,71,0.00,,FEW250,0.00,VWS V14.01,2013-02-17 12:35:00,
2013-02-17 06:40:00,6.6,-0.8,30.24,West,270,2.0,3.0,71,0.00,,FEW250,0.00,VWS V14.01,2013-02-17 12:40:00,
2013-02-17 06:45:00,6.7,-0.7,30.24,West,270,2.0,3.0,71,0.00,,FEW250,0.00,VWS V14.01,2013-02-17 12:45:00,
2013-02-17 06:50:00,6.7,-0.4,30.24,West,270,3.0,4.0,72,0.00,,FEW250,0.00,VWS V14.01,2013-02-17 12:50:00,
2013-02-17 06:55:00,6.8,-0.6,30.24,West,270,2.0,3.0,71,0.00,,FEW250,0.00,VWS V14.01,2013-02-17 12:55:00,
2013-02-17 07:00:00,6.8,-0.6,30.24,West,270,3.0,4.0,71,0.00,,FEW250,0.00,VWS V14.01,2013-02-17 13:00:00,
2013-02-17 07:05:00,6.8,-0.3,30.25,West,270,3.0,4.0,72,0.00,,FEW250,0.00,VWS V14.01,2013-02-17 13:05:00,
2013-02-17 07:10:00,6.8,-0.3,30.25,WNW,292,3.0,4.0,72,0.00,,FEW250,0.00,VWS V14.01,2013-02-17 13:10:00,
2013-02-17 07:15:00,6.9,-0.2,30.25,WNW,292,3.0,4.0,72,0.00,,FEW250,0.00,VWS V14.01,2013-02-17 13:15:00,
2013-02-17 07:20:00,7.2,0.1,30.25,WNW,292,2.0,4.0,72,0.00,,FEW250,0.00,VWS V14.01,2013-02-17 13:20:00,
2013-02-17 07:25:00,7.4,0.3,30.25,WNW,292,1.0,3.0,72,0.00,,FEW250,0.00,VWS V14.01,2013-02-17 13:25:00,
2013-02-17 07:30:00,7.8,0.7,30.25,WNW,292,1.0,3.0,72,0.00,,FEW250,0.00,VWS V14.01,2013-02-17 13:30:00,
2013-02-17 07:35:00,8.5,1.0,30.25,WNW,292,3.0,4.0,71,0.00,,FEW250,0.00,VWS V14.01,2013-02-17 13:35:00,
2013-02-17 07:40:00,8.6,0.5,30.25,WNW,292,3.0,5.0,69,0.00,,FEW250,0.00,VWS V14.01,2013-02-17 13:40:00,
2013-02-17 07:45:00,8.7,0.6,30.25,WNW,292,3.0,5.0,69,0.00,,FEW250,0.00,VWS V14.01,2013-02-17 13:45:00,
2013-02-17 07:50:00,9.0,0.9,30.25,WNW,292,2.0,4.0,69,0.00,,FEW250,0.00,VWS V14.01,2013-02-17 13:50:00,
2013-02-17 07:55:00,9.0,0.6,30.25,WNW,292,3.0,4.0,68,0.00,,FEW250,0.00,VWS V14.01,2013-02-17 13:55:00,
2013-02-17 08:00:00,8.9,0.8,30.25,WNW,292,3.0,5.0,69,0.00,,FEW250,0.00,VWS V14.01,2013-02-17 14:00:00,
2013-02-17 08:05:00,9.1,1.0,30.24,WNW,292,3.0,4.0,69,0.00,,FEW250,0.00,VWS V14.01,2013-02-17 14:05:00,
2013-02-17 08:10:00,9.7,1.6,30.25,WNW,292,2.0,3.0,69,0.00,,FEW250,0.00,VWS V14.01,2013-02-17 14:10:00,
2013-02-17 08:15:00,10.3,1.9,30.25,WNW,292,3.0,5.0,68,0.00,,FEW250,0.00,VWS V14.01,2013-02-17 14:15:00,
2013-02-17 08:20:00,10.5,2.0,30.25,WNW,292,2.0,3.0,68,0.00,,FEW250,0.00,VWS V14.01,2013-02-17 14:20:00,
2013-02-17 08:25:00,11.0,2.5,30.25,NW,315,2.0,3.0,68,0.00,,FEW250,0.00,VWS V14.01,2013-02-17 14:25:00,
2013-02-17 08:30:00,11.3,2.5,30.25,NW,315,2.0,3.0,67,0.00,,FEW250,0.00,VWS V14.01,2013-02-17 14:30:00,
2013-02-17 08:35:00,11.3,2.5,30.25,NW,315,1.0,3.0,67,0.00,,FEW250,0.00,VWS V14.01,2013-02-17 14:35:00,
2013-02-17 08:40:00,11.3,2.5,30.25,NW,315,2.0,3.0,67,0.00,,FEW250,0.00,VWS V14.01,2013-02-17 14:40:00,
2013-02-17 08:45:00,11.7,3.2,30.25,NW,315,2.0,3.0,68,0.00,,FEW250,0.00,VWS V14.01,2013-02-17 14:45:00,
2013-02-17 08:50:00,12.7,3.5,30.25,NW,315,0.0,2.0,66,0.00,,FEW250,0.00,VWS V14.01,2013-02-17 14:50:00,
2013-02-17 08:55:00,13.7,4.5,30.25,NW,315,0.0,1.0,66,0.00,,FEW250,0.00,VWS V14.01,2013-02-17 14:55:00,
2013-02-17 09:00:00,14.9,4.9,30.25,NW,315,0.0,2.0,64,0.00,,FEW250,0.00,VWS V14.01,2013-02-17 15:00:00,
2013-02-17 09:05:00,15.7,4.7,30.25,NW,315,0.0,2.0,61,0.00,,FEW250,0.00,VWS V14.01,2013-02-17 15:05:00,
2013-02-17 09:10:00,15.0,4.0,30.25,NE,45,2.0,3.0,61,0.00,,FEW250,0.00,VWS V14.01,2013-02-17 15:10:00,
2013-02-17 09:15:00,14.5,3.5,30.25,NE,45,1.0,3.0,61,0.00,,FEW250,0.00,VWS V14.01,2013-02-17 15:15:00,
2013-02-17 09:20:00,15.3,4.3,30.25,NNE,22,0.0,2.0,61,0.00,,FEW250,0.00,VWS V14.01,2013-02-17 15:20:00,
2013-02-17 09:25:00,15.7,3.9,30.25,NNE,22,0.0,2.0,59,0.00,,FEW250,0.00,VWS V14.01,2013-02-17 15:25:00,
2013-02-17 09:30:00,15.8,4.0,30.25,NNE,22,0.0,1.0,59,0.00,,FEW250,0.00,VWS V14.01,2013-02-17 15:30:00,
2013-02-17 09:35:00,15.8,4.0,30.25,NNE,22,0.0,1.0,59,0.00,,FEW250,0.00,VWS V14.01,2013-02-17 15:35:00,
2013-02-17 09:40:00,16.2,4.0,30.25,NNE,22,0.0,0.0,58,0.00,,FEW250,0.00,VWS V14.01,2013-02-17 15:40:00,
2013-02-17 09:45:00,17.3,3.1,30.25,NNE,22,0.0,0.0,53,0.00,,FEW250,0.00,VWS V14.01,2013-02-17 15:45:00,
2013-02-17 09:50:00,18.6,3.1,30.25,NE,45,0.0,2.0,50,0.00,,FEW250,0.00,VWS V14.01,2013-02-17 15:50:00,
2013-02-17 09:55:00,18.6,2.2,30.25,NE,45,0.0,2.0,48,0.00,,FEW250,0.00,VWS V14.01,2013-02-17 15:55:00,
2013-02-17 10:00:00,17.9,1.5,30.25,NNW,338,1.0,3.0,48,0.00,,FEW250,0.00,VWS V14.01,2013-02-17 16:00:00,
2013-02-17 10:05:00,17.5,1.6,30.25,NW,315,0.0,2.0,49,0.00,,FEW250,0.00,VWS V14.01,2013-02-17 16:05:00,
2013-02-17 10:10:00,18.3,2.3,30.25,NW,315,0.0,0.0,49,0.00,,FEW250,0.00,VWS V14.01,2013-02-17 16:10:00,
2013-02-17 10:15:00,19.1,2.2,30.25,NW,315,2.0,4.0,47,0.00,,FEW250,0.00,VWS V14.01,2013-02-17 16:15:00,
2013-02-17 10:20:00,19.1,2.2,30.25,NW,315,1.0,3.0,47,0.00,,FEW250,0.00,VWS V14.01,2013-02-17 16:20:00,
2013-02-17 10:25:00,19.1,2.2,30.24,North,0,0.0,3.0,47,0.00,,FEW250,0.00,VWS V14.01,2013-02-17 16:25:00,
2013-02-17 10:30:00,17.8,1.5,30.24,NE,45,3.0,6.0,48,0.00,,FEW250,0.00,VWS V14.01,2013-02-17 16:30:00,
2013-02-17 10:35:00,17.3,1.9,30.24,East,90,2.0,5.0,50,0.00,,FEW250,0.00,VWS V14.01,2013-02-17 16:35:00,
2013-02-17 10:40:00,17.4,2.0,30.24,East,90,2.0,5.0,50,0.00,,FEW250,0.00,VWS V14.01,2013-02-17 16:40:00,
2013-02-17 10:45:00,17.5,2.0,30.24,NNE,22,2.0,4.0,50,0.00,,FEW250,0.00,VWS V14.01,2013-02-17 16:45:00,
2013-02-17 10:50:00,17.7,2.2,30.24,East,90,1.0,2.0,50,0.00,,FEW250,0.00,VWS V14.01,2013-02-17 16:50:00,
2013-02-17 10:55:00,18.1,2.2,30.24,ESE,112,1.0,3.0,49,0.00,,FEW250,0.00,VWS V14.01,2013-02-17 16:55:00,
2013-02-17 11:00:00,18.7,2.7,30.23,ESE,112,0.0,2.0,49,0.00,,FEW250,0.00,VWS V14.01,2013-02-17 17:00:00,
2013-02-17 11:05:00,19.0,2.6,30.23,ENE,68,0.0,2.0,48,0.00,,FEW250,0.00,VWS V14.01,2013-02-17 17:05:00,
2013-02-17 11:10:00,19.2,2.7,30.23,WNW,292,1.0,4.0,48,0.00,,FEW250,0.00,VWS V14.01,2013-02-17 17:10:00,
2013-02-17 11:15:00,19.4,2.9,30.23,WNW,292,2.0,6.0,48,0.00,,FEW250,0.00,VWS V14.01,2013-02-17 17:15:00,
2013-02-17 11:20:00,19.4,3.4,30.23,SSE,158,3.0,7.0,49,0.00,,FEW250,0.00,VWS V14.01,2013-02-17 17:20:00,
2013-02-17 11:25:00,19.3,2.4,30.23,South,180,1.0,4.0,47,0.00,,FEW250,0.00,VWS V14.01,2013-02-17 17:25:00,
2013-02-17 11:30:00,19.5,2.6,30.23,South,180,1.0,4.0,47,0.00,,FEW250,0.00,VWS V14.01,2013-02-17 17:30:00,
2013-02-17 11:35:00,19.8,2.4,30.24,SE,135,2.0,8.0,46,0.00,,FEW250,0.00,VWS V14.01,2013-02-17 17:35:00,
2013-02-17 11:40:00,20.0,2.6,30.23,South,180,3.0,8.0,46,0.00,,FEW250,0.00,VWS V14.01,2013-02-17 17:40:00,
2013-02-17 11:45:00,20.0,2.6,30.23,South,180,1.0,4.0,46,0.00,,FEW250,0.00,VWS V14.01,2013-02-17 17:45:00,
2013-02-17 11:50:00,20.0,2.6,30.23,SSW,202,1.0,5.0,46,0.00,,FEW250,0.00,VWS V14.01,2013-02-17 17:50:00,
2013-02-17 11:55:00,20.3,2.8,30.23,SSE,158,3.0,6.0,46,0.00,,FEW250,0.00,VWS V14.01,2013-02-17 17:55:00,
2013-02-17 12:00:00,20.3,2.8,30.22,SSW,202,2.0,6.0,46,0.00,,FEW250,0.00,VWS V14.01,2013-02-17 18:00:00,
2013-02-17 12:05:00,19.9,2.5,30.22,SSW,202,4.0,7.0,46,0.00,,FEW250,0.00,VWS V14.01,2013-02-17 18:05:00,
2013-02-17 12:10:00,20.0,2.6,30.22,SSW,202,2.0,5.0,46,0.00,,FEW250,0.00,VWS V14.01,2013-02-17 18:10:00,
2013-02-17 12:15:00,20.3,2.4,30.22,SW,225,1.0,2.0,45,0.00,,FEW250,0.00,VWS V14.01,2013-02-17 18:15:00,
2013-02-17 12:20:00,20.6,2.2,30.22,South,180,3.0,8.0,44,0.00,,FEW250,0.00,VWS V14.01,2013-02-17 18:20:00,
2013-02-17 12:25:00,20.8,2.3,30.22,WSW,248,3.0,7.0,44,0.00,,FEW250,0.00,VWS V14.01,2013-02-17 18:25:00,
2013-02-17 12:30:00,20.8,2.3,30.21,SW,225,3.0,8.0,44,0.00,,FEW250,0.00,VWS V14.01,2013-02-17 18:30:00,
2013-02-17 12:35:00,21.2,3.2,30.21,SSW,202,2.0,6.0,45,0.00,,FEW250,0.00,VWS V14.01,2013-02-17 18:35:00,
2013-02-17 12:40:00,21.5,3.0,30.21,South,180,1.0,4.0,44,0.00,,FEW250,0.00,VWS V14.01,2013-02-17 18:40:00,
2013-02-17 12:45:00,21.9,3.3,30.21,South,180,1.0,4.0,44,0.00,,FEW250,0.00,VWS V14.01,2013-02-17 18:45:00,
2013-02-17 12:50:00,22.0,2.9,30.21,SSW,202,2.0,5.0,43,0.00,,FEW250,0.00,VWS V14.01,2013-02-17 18:50:00,
2013-02-17 12:55:00,22.0,2.4,30.20,South,180,2.0,6.0,42,0.00,,FEW250,0.00,VWS V14.01,2013-02-17 18:55:00,
2013-02-17 13:00:00,21.9,3.3,30.20,SSE,158,3.0,7.0,44,0.00,,FEW250,0.00,VWS V14.01,2013-02-17 19:00:00,
2013-02-17 13:05:00,22.2,4.6,30.20,South,180,2.0,7.0,46,0.00,,FEW250,0.00,VWS V14.01,2013-02-17 19:05:00,
2013-02-17 13:10:00,22.5,4.4,30.20,SSE,158,2.0,7.0,45,0.00,,FEW250,0.00,VWS V14.01,2013-02-17 19:10:00,
2013-02-17 13:15:00,22.6,4.5,30.20,SW,225,2.0,6.0,45,0.00,,FEW250,0.00,VWS V14.01,2013-02-17 19:15:00,
2013-02-17 13:20:00,22.6,3.0,30.19,South,180,3.0,9.0,42,0.00,,FEW250,0.00,VWS V14.01,2013-02-17 19:20:00,
2013-02-17 13:25:00,22.8,3.7,30.20,SSW,202,2.0,4.0,43,0.00,,FEW250,0.00,VWS V14.01,2013-02-17 19:25:00,
2013-02-17 13:30:00,22.8,3.7,30.19,SSE,158,4.0,8.0,43,0.00,,FEW250,0.00,VWS V14.01,2013-02-17 19:30:00,
2013-02-17 13:35:00,22.6,3.5,30.19,South,180,5.0,11.0,43,0.00,,FEW250,0.00,VWS V14.01,2013-02-17 19:35:00,
2013-02-17 13:40:00,22.9,4.3,30.19,SSE,158,3.0,9.0,44,0.00,,FEW250,0.00,VWS V14.01,2013-02-17 19:40:00,
2013-02-17 13:45:00,23.1,4.4,30.19,SSE,158,4.0,10.0,44,0.00,,FEW250,0.00,VWS V14.01,2013-02-17 19:45:00,
2013-02-17 13:50:00,23.1,4.9,30.19,South,180,4.0,11.0,45,0.00,,FEW250,0.00,VWS V14.01,2013-02-17 19:50:00,
2013-02-17 13:55:00,23.3,4.6,30.19,SSE,158,4.0,9.0,44,0.00,,FEW250,0.00,VWS V14.01,2013-02-17 19:55:00,
2013-02-17 14:00:00,23.4,4.7,30.18,SSE,158,5.0,10.0,44,0.00,,FEW250,0.00,VWS V14.01,2013-02-17 20:00:00,
2013-02-17 14:05:00,23.6,5.4,30.18,South,180,2.0,7.0,45,0.00,,FEW250,0.00,VWS V14.01,2013-02-17 20:05:00,
2013-02-17 14:10:00,23.5,4.8,30.18,SSE,158,4.0,11.0,44,0.00,,FEW250,0.00,VWS V14.01,2013-02-17 20:10:00,
2013-02-17 14:15:00,23.9,5.2,30.17,South,180,2.0,6.0,44,0.00,,FEW250,0.00,VWS V14.01,2013-02-17 20:15:00,
2013-02-17 14:20:00,24.1,6.3,30.17,South,180,3.0,8.0,46,0.00,,FEW250,0.00,VWS V14.01,2013-02-17 20:20:00,
2013-02-17 14:25:00,24.2,4.9,30.17,South,180,3.0,6.0,43,0.00,,OVC007,0.00,VWS V14.01,2013-02-17 20:25:00,
2013-02-17 14:30:00,24.2,5.9,30.17,South,180,3.0,7.0,45,0.00,,FEW250,0.00,VWS V14.01,2013-02-17 20:30:00,
2013-02-17 14:35:00,24.3,6.5,30.17,South,180,2.0,7.0,46,0.00,,FEW250,0.00,VWS V14.01,2013-02-17 20:35:00,
2013-02-17 14:40:00,24.2,5.4,30.17,South,180,4.0,7.0,44,0.00,,FEW250,0.00,VWS V14.01,2013-02-17 20:40:00,
2013-02-17 14:45:00,24.3,6.5,30.17,South,180,4.0,8.0,46,0.00,,FEW250,0.00,VWS V14.01,2013-02-17 20:45:00,
2013-02-17 14:50:00,24.5,6.2,30.17,South,180,4.0,9.0,45,0.00,,FEW250,0.00,VWS V14.01,2013-02-17 20:50:00,
2013-02-17 14:55:00,24.5,5.7,30.17,South,180,4.0,9.0,44,0.00,,FEW250,0.00,VWS V14.01,2013-02-17 20:55:00,
2013-02-17 15:00:00,24.3,6.0,30.16,SSW,202,3.0,7.0,45,0.00,,FEW250,0.00,VWS V14.01,2013-02-17 21:00:00,
2013-02-17 15:05:00,24.5,5.7,30.16,South,180,3.0,7.0,44,0.00,,FEW250,0.00,VWS V14.01,2013-02-17 21:05:00,
2013-02-17 15:10:00,24.4,4.6,30.16,South,180,5.0,10.0,42,0.00,,FEW250,0.00,VWS V14.01,2013-02-17 21:10:00,
2013-02-17 15:15:00,24.6,5.3,30.15,SSE,158,2.0,6.0,43,0.00,,FEW250,0.00,VWS V14.01,2013-02-17 21:15:00,
2013-02-17 15:20:00,24.9,5.6,30.15,SSE,158,3.0,7.0,43,0.00,,FEW250,0.00,VWS V14.01,2013-02-17 21:20:00,
2013-02-17 15:25:00,24.9,5.6,30.15,SSE,158,4.0,8.0,43,0.00,,FEW250,0.00,VWS V14.01,2013-02-17 21:25:00,
2013-02-17 15:30:00,25.0,6.2,30.15,South,180,2.0,6.0,44,0.00,,FEW250,0.00,VWS V14.01,2013-02-17 21:30:00,
2013-02-17 15:35:00,24.7,6.4,30.14,South,180,4.0,9.0,45,0.00,,FEW250,0.00,VWS V14.01,2013-02-17 21:35:00,
2013-02-17 15:40:00,24.6,5.3,30.14,South,180,4.0,9.0,43,0.00,,FEW250,0.00,VWS V14.01,2013-02-17 21:40:00,
2013-02-17 15:45:00,24.6,5.8,30.14,South,180,4.0,8.0,44,0.00,,FEW250,0.00,VWS V14.01,2013-02-17 21:45:00,
2013-02-17 15:50:00,24.8,6.0,30.14,SSE,158,5.0,9.0,44,0.00,,FEW250,0.00,VWS V14.01,2013-02-17 21:50:00,
2013-02-17 15:55:00,24.9,6.1,30.14,SSE,158,4.0,7.0,44,0.00,,FEW250,0.00,VWS V14.01,2013-02-17 21:55:00,
2013-02-17 16:00:00,24.9,6.6,30.14,SSE,158,2.0,6.0,45,0.00,,FEW250,0.00,VWS V14.01,2013-02-17 22:00:00,
2013-02-17 16:05:00,24.8,7.0,30.14,SSE,158,4.0,8.0,46,0.00,,FEW250,0.00,VWS V14.01,2013-02-17 22:05:00,
2013-02-17 16:10:00,24.8,7.0,30.13,SE,135,5.0,10.0,46,0.00,,FEW250,0.00,VWS V14.01,2013-02-17 22:10:00,
2013-02-17 16:15:00,24.7,6.9,30.13,SSE,158,5.0,9.0,46,0.00,,FEW250,0.00,VWS V14.01,2013-02-17 22:15:00,
2013-02-17 16:20:00,24.6,7.3,30.13,SE,135,5.0,10.0,47,0.00,,FEW250,0.00,VWS V14.01,2013-02-17 22:20:00,
2013-02-17 16:25:00,24.5,7.6,30.12,SE,135,5.0,10.0,48,0.00,,FEW250,0.00,VWS V14.01,2013-02-17 22:25:00,
2013-02-17 16:30:00,24.4,7.5,30.12,SE,135,5.0,10.0,48,0.00,,FEW250,0.00,VWS V14.01,2013-02-17 22:30:00,
2013-02-17 16:35:00,24.3,7.9,30.12,SE,135,4.0,9.0,49,0.00,,FEW250,0.00,VWS V14.01,2013-02-17 22:35:00,
2013-02-17 16:40:00,24.1,7.3,30.12,SE,135,7.0,11.0,48,0.00,,FEW250,0.00,VWS V14.01,2013-02-17 22:40:00,
2013-02-17 16:45:00,24.1,7.3,30.12,SE,135,6.0,11.0,48,0.00,,FEW250,0.00,VWS V14.01,2013-02-17 22:45:00,
2013-02-17 16:50:00,24.0,7.2,30.12,SE,135,6.0,9.0,48,0.00,,FEW250,0.00,VWS V14.01,2013-02-17 22:50:00,
2013-02-17 16:55:00,24.1,7.7,30.12,SSE,158,6.0,10.0,49,0.00,,FEW250,0.00,VWS V14.01,2013-02-17 22:55:00,
2013-02-17 17:00:00,24.0,7.6,30.12,SSE,158,5.0,9.0,49,0.00,,FEW250,0.00,VWS V14.01,2013-02-17 23:00:00,
2013-02-17 17:05:00,24.0,7.6,30.12,SSE,158,6.0,11.0,49,0.00,,FEW250,0.00,VWS V14.01,2013-02-17 23:05:00,
2013-02-17 17:10:00,23.8,7.9,30.13,SSE,158,5.0,10.0,50,0.00,,FEW250,0.00,VWS V14.01,2013-02-17 23:10:00,
2013-02-17 17:15:00,23.7,8.2,30.12,SSE,158,4.0,12.0,51,0.00,,FEW250,0.00,VWS V14.01,2013-02-17 23:15:00,
2013-02-17 17:20:00,23.6,8.1,30.13,SSE,158,5.0,9.0,51,0.00,,FEW250,0.00,VWS V14.01,2013-02-17 23:20:00,
2013-02-17 17:25:00,23.6,8.6,30.12,SSE,158,4.0,7.0,52,0.00,,FEW250,0.00,VWS V14.01,2013-02-17 23:25:00,
2013-02-17 17:30:00,23.5,8.5,30.12,SSE,158,5.0,8.0,52,0.00,,FEW250,0.00,VWS V14.01,2013-02-17 23:30:00,
2013-02-17 17:35:00,23.4,8.4,30.12,SE,135,4.0,8.0,52,0.00,,FEW250,0.00,VWS V14.01,2013-02-17 23:35:00,
2013-02-17 17:40:00,23.3,8.3,30.12,SE,135,4.0,8.0,52,0.00,,FEW250,0.00,VWS V14.01,2013-02-17 23:40:00,
2013-02-17 17:45:00,23.2,8.2,30.12,SE,135,4.0,7.0,52,0.00,,FEW250,0.00,VWS V14.01,2013-02-17 23:45:00,
2013-02-17 17:50:00,23.2,8.2,30.12,SE,135,3.0,6.0,52,0.00,,FEW250,0.00,VWS V14.01,2013-02-17 23:50:00,
2013-02-17 17:55:00,23.1,8.5,30.12,SE,135,4.0,7.0,53,0.00,,FEW250,0.00,VWS V14.01,2013-02-17 23:55:00,
2013-02-17 18:00:00,23.1,8.5,30.12,SE,135,4.0,8.0,53,0.00,,FEW250,0.00,VWS V14.01,2013-02-18 00:00:00,
2013-02-17 18:05:00,23.1,8.5,30.12,SE,135,2.0,5.0,53,0.00,,FEW250,0.00,VWS V14.01,2013-02-18 00:05:00,
2013-02-17 18:10:00,23.0,8.4,30.12,SE,135,2.0,4.0,53,0.00,,FEW250,0.00,VWS V14.01,2013-02-18 00:10:00,
2013-02-17 18:15:00,22.9,8.3,30.12,SE,135,3.0,6.0,53,0.00,,FEW250,0.00,VWS V14.01,2013-02-18 00:15:00,
2013-02-17 18:20:00,22.8,8.7,30.12,SE,135,3.0,6.0,54,0.00,,FEW250,0.00,VWS V14.01,2013-02-18 00:20:00,
2013-02-17 18:25:00,22.7,8.6,30.11,SE,135,6.0,10.0,54,0.00,,FEW250,0.00,VWS V14.01,2013-02-18 00:25:00,
2013-02-17 18:30:00,22.6,8.9,30.11,ESE,112,5.0,10.0,55,0.00,,FEW250,0.00,VWS V14.01,2013-02-18 00:30:00,
2013-02-17 18:35:00,22.5,9.2,30.11,SE,135,5.0,9.0,56,0.00,,FEW250,0.00,VWS V14.01,2013-02-18 00:35:00,
2013-02-17 18:40:00,22.4,9.5,30.11,SE,135,6.0,12.0,57,0.00,,FEW250,0.00,VWS V14.01,2013-02-18 00:40:00,
2013-02-17 18:45:00,22.4,10.3,30.11,SE,135,6.0,9.0,59,0.00,,FEW250,0.00,VWS V14.01,2013-02-18 00:45:00,
2013-02-17 18:50:00,22.2,10.4,30.12,SE,135,5.0,9.0,60,0.00,,FEW250,0.00,VWS V14.01,2013-02-18 00:50:00,
2013-02-17 18:55:00,22.2,10.8,30.11,SE,135,6.0,9.0,61,0.00,,FEW250,0.00,VWS V14.01,2013-02-18 00:55:00,
2013-02-17 19:00:00,22.1,11.1,30.11,ESE,112,6.0,9.0,62,0.00,,FEW250,0.00,VWS V14.01,2013-02-18 01:00:00,
2013-02-17 19:05:00,22.0,11.4,30.11,ESE,112,6.0,11.0,63,0.00,,FEW250,0.00,VWS V14.01,2013-02-18 01:05:00,
2013-02-17 19:10:00,21.9,11.2,30.11,SE,135,6.0,10.0,63,0.00,,FEW250,0.00,VWS V14.01,2013-02-18 01:10:00,
2013-02-17 19:15:00,21.9,11.6,30.11,SE,135,6.0,9.0,64,0.00,,FEW250,0.00,VWS V14.01,2013-02-18 01:15:00,
2013-02-17 19:20:00,22.0,11.7,30.10,SE,135,6.0,11.0,64,0.00,,FEW250,0.00,VWS V14.01,2013-02-18 01:20:00,
2013-02-17 19:25:00,22.0,11.7,30.10,ESE,112,6.0,11.0,64,0.00,,FEW250,0.00,VWS V14.01,2013-02-18 01:25:00,
2013-02-17 19:30:00,22.0,11.7,30.10,SE,135,6.0,10.0,64,0.00,,FEW250,0.00,VWS V14.01,2013-02-18 01:30:00,
2013-02-17 19:35:00,22.1,11.8,30.10,SE,135,6.0,9.0,64,0.00,,FEW250,0.00,VWS V14.01,2013-02-18 01:35:00,
2013-02-17 19:40:00,22.2,11.9,30.09,SE,135,6.0,9.0,64,0.00,,FEW250,0.00,VWS V14.01,2013-02-18 01:40:00,
2013-02-17 19:45:00,22.3,12.0,30.09,SE,135,6.0,8.0,64,0.00,,FEW250,0.00,VWS V14.01,2013-02-18 01:45:00,
2013-02-17 19:50:00,22.4,12.1,30.09,SE,135,8.0,12.0,64,0.00,,FEW250,0.00,VWS V14.01,2013-02-18 01:50:00,
2013-02-17 19:55:00,22.5,11.8,30.08,SE,135,7.0,11.0,63,0.00,,FEW250,0.00,VWS V14.01,2013-02-18 01:55:00,
2013-02-17 20:00:00,22.6,11.9,30.08,ESE,112,6.0,12.0,63,0.00,,FEW250,0.00,VWS V14.01,2013-02-18 02:00:00,
2013-02-17 20:05:00,22.7,12.0,30.07,SE,135,6.0,10.0,63,0.00,,FEW250,0.00,VWS V14.01,2013-02-18 02:05:00,
2013-02-17 20:10:00,22.8,12.1,30.08,SE,135,6.0,11.0,63,0.00,,FEW250,0.00,VWS V14.01,2013-02-18 02:10:00,
2013-02-17 20:15:00,22.9,11.8,30.08,SE,135,5.0,9.0,62,0.00,,FEW250,0.00,VWS V14.01,2013-02-18 02:15:00,
2013-02-17 20:20:00,23.0,11.9,30.07,SE,135,6.0,9.0,62,0.00,,FEW250,0.00,VWS V14.01,2013-02-18 02:20:00,
2013-02-17 20:25:00,23.0,11.6,30.08,SE,135,5.0,10.0,61,0.00,,FEW250,0.00,VWS V14.01,2013-02-18 02:25:00,
2013-02-17 20:30:00,23.1,11.3,30.08,SE,135,5.0,8.0,60,0.00,,FEW250,0.00,VWS V14.01,2013-02-18 02:30:00,
2013-02-17 20:35:00,23.3,11.1,30.08,SE,135,4.0,9.0,59,0.00,,FEW250,0.00,VWS V14.01,2013-02-18 02:35:00,
2013-02-17 20:40:00,23.4,10.8,30.08,SE,135,4.0,9.0,58,0.00,,FEW250,0.00,VWS V14.01,2013-02-18 02:40:00,
2013-02-17 20:45:00,23.5,10.5,30.08,SSE,158,6.0,9.0,57,0.00,,FEW250,0.00,VWS V14.01,2013-02-18 02:45:00,
2013-02-17 20:50:00,23.5,10.5,30.08,SSE,158,6.0,11.0,57,0.00,,FEW250,0.00,VWS V14.01,2013-02-18 02:50:00,
2013-02-17 20:55:00,23.5,10.5,30.08,SE,135,5.0,10.0,57,0.00,,FEW250,0.00,VWS V14.01,2013-02-18 02:55:00,
2013-02-17 21:00:00,23.5,10.5,30.08,SE,135,6.0,11.0,57,0.00,,FEW250,0.00,VWS V14.01,2013-02-18 03:00:00,
2013-02-17 21:05:00,23.6,10.6,30.08,SSE,158,5.0,11.0,57,0.00,,FEW250,0.00,VWS V14.01,2013-02-18 03:05:00,
2013-02-17 21:10:00,23.6,10.6,30.07,SE,135,6.0,11.0,57,0.00,,FEW250,0.00,VWS V14.01,2013-02-18 03:10:00,
2013-02-17 21:15:00,23.8,10.8,30.07,SE,135,7.0,13.0,57,0.00,,FEW250,0.00,VWS V14.01,2013-02-18 03:15:00,
2013-02-17 21:20:00,24.0,10.6,30.07,SE,135,7.0,13.0,56,0.00,,FEW250,0.00,VWS V14.01,2013-02-18 03:20:00,
2013-02-17 21:25:00,24.2,10.8,30.07,SSE,158,7.0,15.0,56,0.00,,FEW250,0.00,VWS V14.01,2013-02-18 03:25:00,
2013-02-17 21:30:00,24.4,10.6,30.07,SSE,158,8.0,14.0,55,0.00,,FEW250,0.00,VWS V14.01,2013-02-18 03:30:00,
2013-02-17 21:35:00,24.6,10.8,30.07,SE,135,7.0,13.0,55,0.00,,FEW250,0.00,VWS V14.01,2013-02-18 03:35:00,
2013-02-17 21:40:00,24.8,10.9,30.06,SE,135,8.0,15.0,55,0.00,,FEW250,0.00,VWS V14.01,2013-02-18 03:40:00,
2013-02-17 21:45:00,24.9,11.0,30.06,SE,135,8.0,18.0,55,0.00,,FEW250,0.00,VWS V14.01,2013-02-18 03:45:00,
2013-02-17 21:50:00,24.8,10.9,30.06,SE,135,8.0,14.0,55,0.00,,FEW250,0.00,VWS V14.01,2013-02-18 03:50:00,
2013-02-17 21:55:00,24.8,10.9,30.06,SE,135,10.0,17.0,55,0.00,,FEW250,0.00,VWS V14.01,2013-02-18 03:55:00,
2013-02-17 22:00:00,24.8,11.3,30.05,SE,135,10.0,16.0,56,0.00,,FEW250,0.00,VWS V14.01,2013-02-18 04:00:00,
2013-02-17 22:05:00,24.8,11.3,30.06,SE,135,9.0,16.0,56,0.00,,FEW250,0.00,VWS V14.01,2013-02-18 04:05:00,
2013-02-17 22:10:00,24.9,11.4,30.05,SSE,158,9.0,14.0,56,0.00,,FEW250,0.00,VWS V14.01,2013-02-18 04:10:00,
2013-02-17 22:15:00,24.9,11.4,30.06,SE,135,9.0,17.0,56,0.00,,FEW250,0.00,VWS V14.01,2013-02-18 04:15:00,
2013-02-17 22:20:00,25.0,11.5,30.06,SE,135,9.0,17.0,56,0.00,,FEW250,0.00,VWS V14.01,2013-02-18 04:20:00,
2013-02-17 22:25:00,25.0,11.5,30.06,SE,135,9.0,15.0,56,0.00,,FEW250,0.00,VWS V14.01,2013-02-18 04:25:00,
2013-02-17 22:30:00,25.1,11.6,30.05,SE,135,9.0,13.0,56,0.00,,FEW250,0.00,VWS V14.01,2013-02-18 04:30:00,
2013-02-17 22:35:00,25.2,11.7,30.05,SE,135,9.0,17.0,56,0.00,,FEW250,0.00,VWS V14.01,2013-02-18 04:35:00,
2013-02-17 22:40:00,25.3,11.8,30.05,SE,135,9.0,15.0,56,0.00,,FEW250,0.00,VWS V14.01,2013-02-18 04:40:00,
2013-02-17 22:45:00,25.4,11.9,30.05,SE,135,8.0,13.0,56,0.00,,FEW250,0.00,VWS V14.01,2013-02-18 04:45:00,
2013-02-17 22:50:00,25.4,11.9,30.05,SE,135,9.0,17.0,56,0.00,,FEW250,0.00,VWS V14.01,2013-02-18 04:50:00,
2013-02-17 22:55:00,25.5,12.0,30.05,SSE,158,9.0,16.0,56,0.00,,FEW250,0.00,VWS V14.01,2013-02-18 04:55:00,
2013-02-17 23:00:00,25.4,12.3,30.04,SSE,158,8.0,18.0,57,0.00,,FEW250,0.00,VWS V14.01,2013-02-18 05:00:00,
2013-02-17 23:05:00,25.5,12.4,30.03,SE,135,9.0,14.0,57,0.00,,FEW250,0.00,VWS V14.01,2013-02-18 05:05:00,
2013-02-17 23:10:00,25.6,12.5,30.03,SSE,158,9.0,14.0,57,0.00,,FEW250,0.00,VWS V14.01,2013-02-18 05:10:00,
2013-02-17 23:15:00,25.7,13.0,30.03,SE,135,9.0,16.0,58,0.00,,FEW250,0.00,VWS V14.01,2013-02-18 05:15:00,
2013-02-17 23:20:00,25.7,13.0,30.03,SE,135,9.0,17.0,58,0.00,,FEW250,0.00,VWS V14.01,2013-02-18 05:20:00,
2013-02-17 23:25:00,25.8,13.1,30.03,SE,135,8.0,16.0,58,0.00,,FEW250,0.00,VWS V14.01,2013-02-18 05:25:00,
2013-02-17 23:30:00,25.8,13.1,30.03,SE,135,9.0,17.0,58,0.00,,FEW250,0.00,VWS V14.01,2013-02-18 05:30:00,
2013-02-17 23:35:00,25.9,13.6,30.02,SE,135,8.0,13.0,59,0.00,,FEW250,0.00,VWS V14.01,2013-02-18 05:35:00,
2013-02-17 23:40:00,26.0,13.6,30.02,SE,135,9.0,15.0,59,0.00,,FEW250,0.00,VWS V14.01,2013-02-18 05:40:00,
2013-02-17 23:45:00,26.0,13.6,30.02,SE,135,7.0,12.0,59,0.00,,FEW250,0.00,VWS V14.01,2013-02-18 05:45:00,
2013-02-17 23:50:00,26.0,14.0,30.02,SE,135,8.0,15.0,60,0.00,,FEW250,0.00,VWS V14.01,2013-02-18 05:50:00,
2013-02-17 23:55:00,26.1,14.1,30.01,SE,135,9.0,16.0,60,0.00,,FEW250,0.00,VWS V14.01,2013-02-18 05:55:00,